This is the latest recevied weather packets stored in our database for station/object KC3WWU. If no packets are shown the sender has not sent any weather packets the latest 10 day(s).
| Time | Temp. | Humidity | Pressure | Rain* | Wind** | Luminosity | Snow |
|---|---|---|---|---|---|---|---|
| 1777558062 | 8.33° C | 95% | 1007.2 hPa | 0 mm | - | 96 W/m² | - |
| 1777557758 | 8.33° C | 95% | 1006.9 hPa | 0 mm | - | 131 W/m² | - |
| 1777557455 | 8.33° C | 97% | 1007 hPa | 0 mm | - | 151 W/m² | - |
| 1777557151 | 7.78° C | 96% | 1007.1 hPa | 0 mm | - | 80 W/m² | - |
| 1777556847 | 8.33° C | 96% | 1007 hPa | 0 mm | - | 111 W/m² | - |
| 1777556543 | 8.33° C | 96% | 1007.1 hPa | 0 mm | - | 147 W/m² | - |
| 1777556242 | 7.78° C | 96% | 1006.9 hPa | 0 mm | - | 101 W/m² | - |
| 1777555939 | 8.33° C | 98% | 1007 hPa | 0 mm | - | 150 W/m² | - |
| 1777555634 | 7.78° C | 98% | 1007.1 hPa | 0 mm | - | 167 W/m² | - |
| 1777555332 | 7.78° C | 99% | 1007 hPa | 0 mm | - | 169 W/m² | - |
| 1777555028 | 7.22° C | 99% | 1006.9 hPa | 0 mm | - | 120 W/m² | - |
| 1777554725 | 7.22° C | 99% | 1007.2 hPa | 0 mm | - | 86 W/m² | - |
| 1777554422 | 7.22° C | 99% | 1007.1 hPa | 0 mm | - | 51 W/m² | - |
| 1777554118 | 6.67° C | 99% | 1007 hPa | 0 mm | - | 75 W/m² | - |
| 1777553815 | 7.22° C | 99% | 1007 hPa | 0 mm | - | 74 W/m² | - |
| 1777553511 | 7.22° C | 99% | 1006.9 hPa | 0 mm | - | 80 W/m² | - |
| 1777553207 | 6.67° C | 99% | 1007 hPa | 0 mm | - | 86 W/m² | - |
| 1777552904 | 6.67° C | 99% | 1007 hPa | 0 mm | - | 78 W/m² | - |
| 1777552604 | 6.67° C | 99% | 1006.9 hPa | 0 mm | - | 68 W/m² | - |
| 1777552301 | 6.67° C | 99% | 1006.9 hPa | 0 mm | - | 72 W/m² | - |
| 1777551997 | 6.67° C | 99% | 1007.1 hPa | 0 mm | - | 59 W/m² | - |
| 1777551694 | 6.67° C | 99% | 1007.1 hPa | 0 mm | - | 44 W/m² | - |
| 1777551392 | 6.67° C | 99% | 1006.9 hPa | 0 mm | - | 64 W/m² | - |
| 1777551089 | 6.67° C | 99% | 1007.2 hPa | 0 mm | - | 54 W/m² | - |
| 1777550786 | 6.67° C | 99% | 1007.3 hPa | 0 mm | - | 45 W/m² | - |
* Rain latest hour (hover to see other rain measurements)
** Current wind speed in m/s (hover to see current wind gust speed)